Weather History for Grand Marais Airport, MN

Change the Weather History Date:

Tuesday, March 18, 2014

  Actual Average Record
Temperature  
Mean Temperature 20 °F -  
Max Temperature 24 °F 30 °F 69 °F (2012)
Min Temperature 17 °F 13 °F 0 °F (2005)
Degree Days  
Heating Degree Days 44    
Moisture  
Dew Point 16 °F    
Average Humidity 83    
Maximum Humidity 93    
Minimum Humidity 69    
Precipitation  
Precipitation 0.00 in - - ()
Sea Level Pressure  
Sea Level Pressure 29.84 in    
Wind  
Wind Speed 5 mph (NE)    
Max Wind Speed 15 mph    
Max Gust Speed 18 mph    
Visibility 8 miles    
Events Snow    
Averages and records for this station are not official NWS values.
T = Trace of Precipitation, MM = Missing Value Source: NWS Daily Summary

Daily Weather History Graph

Daily Weather History Graph

Search for Another Location

Airport:

Trip Planner

Search our weather history database for the weather conditions in past years. The results will help you decide how hot, cold, wet, or windy it might be!

Date:

Astronomy

Mar. 18, 2014 Rise Set
Actual Time 7:08 AM CDT 7:11 PM CDT
Civil Twilight 6:37 AM CDT 7:42 PM CDT
Nautical Twilight 6:01 AM CDT 8:18 PM CDT
Astronomical Twilight 5:24 AM CDT 8:55 PM CDT
Moon 9:40 PM CDT (3/18) 7:48 AM CDT (3/18)
Length of Visible Light 13h 04m
Length of Day
12h 03m
Waning Gibbous, 96% of the Moon is Illuminated
Mar 18
Waning Gibbous
Mar 23
Last Quarter
Mar 30
New
Apr 7
First Quarter
Apr 15
Full

Hourly Weather History & Observations

Time (CDT) Temp. Windchill Dew Point Humidity Pressure Visibility Wind Dir Wind Speed Gust Speed Precip Events Conditions
12:13 AM 17.6 °F - 15.8 °F 93% 29.73 in 4.0 mi Calm Calm - N/A   Overcast
12:33 AM 17.6 °F - 15.8 °F 93% 29.73 in 5.0 mi Calm Calm - N/A   Overcast
12:54 AM 19.4 °F - 15.8 °F 86% 29.73 in 5.0 mi Calm Calm - N/A   Overcast
1:13 AM 19.4 °F - 15.8 °F 86% 29.74 in 7.0 mi Calm Calm - N/A   Overcast
1:34 AM 19.4 °F - 15.8 °F 86% 29.75 in 7.0 mi Calm Calm - N/A   Overcast
1:53 AM 19.4 °F - 15.8 °F 86% 29.75 in 7.0 mi Calm Calm - N/A   Overcast
2:13 AM 19.4 °F - 15.8 °F 86% 29.75 in 10.0 mi Calm Calm - N/A   Overcast
2:34 AM 19.4 °F - 15.8 °F 86% 29.76 in 7.0 mi Calm Calm - N/A   Overcast
2:53 AM 19.4 °F - 15.8 °F 86% 29.76 in 7.0 mi Calm Calm - N/A   Overcast
3:13 AM 19.4 °F - 15.8 °F 86% 29.76 in 10.0 mi Calm Calm - N/A   Overcast
3:33 AM 19.4 °F - 15.8 °F 86% 29.76 in 10.0 mi Calm Calm - N/A   Overcast
3:54 AM 19.4 °F - 15.8 °F 86% 29.77 in 10.0 mi Calm Calm - N/A   Overcast
4:13 AM 19.4 °F 14.3 °F 15.8 °F 86% 29.77 in 7.0 mi ENE 3.5 mph - N/A   Overcast
4:33 AM 19.4 °F 12.8 °F 15.8 °F 86% 29.76 in 7.0 mi ENE 4.6 mph - N/A   Overcast
4:54 AM 19.4 °F 12.8 °F 15.8 °F 86% 29.77 in 7.0 mi ENE 4.6 mph - N/A   Overcast
5:13 AM 19.4 °F 14.3 °F 15.8 °F 86% 29.78 in 7.0 mi ENE 3.5 mph - N/A   Overcast
5:33 AM 19.4 °F 11.5 °F 15.8 °F 86% 29.78 in 7.0 mi ENE 5.8 mph - N/A   Overcast
5:54 AM 19.4 °F 12.8 °F 15.8 °F 86% 29.79 in 10.0 mi ENE 4.6 mph - N/A   Overcast
6:13 AM 19.4 °F 11.5 °F 15.8 °F 86% 29.79 in 10.0 mi ENE 5.8 mph - N/A   Overcast
6:33 AM 19.4 °F 11.5 °F 15.8 °F 86% 29.79 in 10.0 mi NE 5.8 mph - N/A   Overcast
6:53 AM 19.4 °F 11.5 °F 15.8 °F 86% 29.80 in 10.0 mi NE 5.8 mph - N/A   Overcast
7:13 AM 19.4 °F 11.5 °F 15.8 °F 86% 29.80 in 10.0 mi NNE 5.8 mph - N/A   Overcast
7:33 AM 17.6 °F 8.2 °F 15.8 °F 93% 29.81 in 10.0 mi NE 6.9 mph - N/A   Overcast
7:54 AM 17.6 °F 10.7 °F 15.8 °F 93% 29.82 in 10.0 mi NNE 4.6 mph - N/A   Overcast
8:13 AM 19.4 °F 10.4 °F 15.8 °F 86% 29.83 in 7.0 mi NNE 6.9 mph - N/A   Overcast
8:33 AM 19.4 °F 11.5 °F 15.8 °F 86% 29.84 in 10.0 mi NE 5.8 mph - N/A   Overcast
8:53 AM 19.4 °F 8.6 °F 15.8 °F 86% 29.84 in 10.0 mi NE 9.2 mph - N/A   Overcast
9:13 AM 19.4 °F 10.4 °F 15.8 °F 86% 29.85 in 10.0 mi ENE 6.9 mph - N/A   Overcast
9:34 AM 19.4 °F 7.9 °F 15.8 °F 86% 29.86 in 10.0 mi NE 10.4 mph - N/A   Overcast
9:53 AM 19.4 °F 9.5 °F 15.8 °F 86% 29.86 in 10.0 mi ENE 8.1 mph 16.1 mph N/A   Overcast
10:13 AM 19.4 °F 7.2 °F 15.8 °F 86% 29.86 in 10.0 mi ENE 11.5 mph 17.3 mph N/A   Overcast
10:34 AM 19.4 °F 7.9 °F 15.8 °F 86% 29.87 in 10.0 mi ENE 10.4 mph 16.1 mph N/A   Overcast
10:53 AM 19.4 °F 8.6 °F 15.8 °F 86% 29.87 in 10.0 mi ENE 9.2 mph - N/A   Overcast
11:13 AM 21.2 °F 9.5 °F 15.8 °F 80% 29.87 in 10.0 mi ENE 11.5 mph 16.1 mph N/A   Overcast
11:33 AM 21.2 °F 10.9 °F 15.8 °F 80% 29.88 in 10.0 mi ENE 9.2 mph - N/A   Overcast
11:54 AM 21.2 °F 10.1 °F 15.8 °F 80% 29.87 in 10.0 mi ENE 10.4 mph 17.3 mph N/A   Overcast
12:13 PM 21.2 °F 10.1 °F 15.8 °F 80% 29.88 in 10.0 mi East 10.4 mph - N/A   Overcast
12:33 PM 23.0 °F 12.4 °F 17.6 °F 80% 29.89 in 10.0 mi NE 10.4 mph - N/A   Overcast
12:54 PM 21.2 °F 10.1 °F 17.6 °F 86% 29.89 in 10.0 mi ENE 10.4 mph - N/A   Overcast
1:13 PM 23.0 °F 14.7 °F 17.6 °F 80% 29.89 in 10.0 mi ENE 6.9 mph - N/A   Overcast
1:33 PM 23.0 °F 13.9 °F 17.6 °F 80% 29.89 in 10.0 mi NE 8.1 mph - N/A   Overcast
1:53 PM 24.8 °F 16.1 °F 17.6 °F 74% 29.88 in 10.0 mi NE 8.1 mph - N/A   Mostly Cloudy
2:14 PM 24.8 °F 14.6 °F 17.6 °F 74% 29.88 in 10.0 mi NE 10.4 mph - N/A   Mostly Cloudy
2:33 PM 24.8 °F 15.3 °F 17.6 °F 74% 29.87 in 10.0 mi NE 9.2 mph - N/A   Mostly Cloudy
2:53 PM 24.8 °F 14.6 °F 17.6 °F 74% 29.87 in 10.0 mi NE 10.4 mph - N/A   Mostly Cloudy
3:14 PM 24.8 °F 15.3 °F 17.6 °F 74% 29.87 in 10.0 mi NE 9.2 mph - N/A   Mostly Cloudy
3:33 PM 24.8 °F 14.6 °F 17.6 °F 74% 29.87 in 10.0 mi NE 10.4 mph 16.1 mph N/A   Scattered Clouds
3:53 PM 24.8 °F 14.0 °F 17.6 °F 74% 29.87 in 10.0 mi NNE 11.5 mph 16.1 mph N/A   Scattered Clouds
4:14 PM 24.8 °F 13.4 °F 17.6 °F 74% 29.87 in 10.0 mi NNE 12.7 mph - N/A   Scattered Clouds
4:33 PM 24.8 °F 13.4 °F 15.8 °F 69% 29.88 in 10.0 mi NE 12.7 mph - N/A   Scattered Clouds
4:54 PM 24.8 °F 13.4 °F 15.8 °F 69% 29.88 in 10.0 mi NE 12.7 mph - N/A   Scattered Clouds
5:13 PM 23.0 °F 10.1 °F 15.8 °F 74% 29.88 in 10.0 mi NE 15.0 mph 18.4 mph N/A   Mostly Cloudy
5:33 PM 23.0 °F 11.7 °F 15.8 °F 74% 29.88 in 7.0 mi NE 11.5 mph - N/A   Overcast
5:54 PM 21.2 °F 10.1 °F 15.8 °F 80% 29.88 in 4.0 mi NE 10.4 mph 17.3 mph N/A Snow Light Snow
6:13 PM 21.2 °F 8.3 °F 15.8 °F 80% 29.88 in 5.0 mi NNE 13.8 mph - N/A Snow Light Snow
6:33 PM 21.2 °F 10.9 °F 15.8 °F 80% 29.88 in 7.0 mi NNE 9.2 mph 12.7 mph N/A Snow Light Snow
6:53 PM 21.2 °F 10.1 °F 15.8 °F 80% 29.88 in 10.0 mi NE 10.4 mph - N/A   Overcast
7:14 PM 19.4 °F 7.2 °F 15.8 °F 86% 29.88 in 10.0 mi NE 11.5 mph - N/A   Overcast
7:34 PM 19.4 °F 7.9 °F 15.8 °F 86% 29.88 in 7.0 mi NNE 10.4 mph - N/A   Overcast
7:53 PM 19.4 °F 8.6 °F 15.8 °F 86% 29.89 in 3.0 mi NNE 9.2 mph - N/A Snow Light Snow
8:14 PM 19.4 °F 8.6 °F 15.8 °F 86% 29.88 in 7.0 mi NNE 9.2 mph 17.3 mph N/A   Overcast
8:33 PM 19.4 °F 8.6 °F 15.8 °F 86% 29.89 in 10.0 mi NNE 9.2 mph 16.1 mph N/A   Overcast
8:53 PM 19.4 °F 9.5 °F 15.8 °F 86% 29.89 in 10.0 mi NNE 8.1 mph - N/A   Overcast
9:13 PM 19.4 °F 8.6 °F 15.8 °F 86% 29.89 in 10.0 mi NNE 9.2 mph - N/A   Overcast
9:34 PM 19.4 °F 9.5 °F 15.8 °F 86% 29.89 in 10.0 mi NE 8.1 mph - N/A   Overcast
9:54 PM 19.4 °F 7.2 °F 15.8 °F 86% 29.88 in 5.0 mi NE 11.5 mph - N/A   Haze
10:14 PM 19.4 °F 8.6 °F 15.8 °F 86% 29.88 in 4.0 mi NE 9.2 mph - N/A   Haze
10:33 PM 19.4 °F 7.2 °F 15.8 °F 86% 29.87 in 4.0 mi NE 11.5 mph - N/A Snow Light Snow
10:54 PM 19.4 °F 7.2 °F 15.8 °F 86% 29.87 in 2.5 mi NNE 11.5 mph - N/A Snow Light Snow
11:14 PM 19.4 °F 8.6 °F 15.8 °F 86% 29.86 in 2.5 mi NNE 9.2 mph - N/A Snow Light Snow
11:33 PM 19.4 °F 8.6 °F 15.8 °F 86% 29.85 in 4.0 mi NE 9.2 mph - N/A Snow Light Snow
11:54 PM 19.4 °F 10.4 °F 15.8 °F 86% 29.85 in 5.0 mi NNE 6.9 mph - N/A Snow Light Snow